Theta_e
308 308 307 307 308 308 308 308 307 307 307 308 308 308 308 308 308 307 308 307 308 308 308 308 308 308 308 308 309 309 310 310 312 313 314 315 314 313 312 312 313 313 314 315 314 313 314 314 315 315 318 317 316 318 318 317 317 318 320 319 316 318 318 318 319 317 316 316 316 315 312 313 315 313 311 310 310 313 313 313 313 313 313 313 314 314 312 311
309 309 308 307 308 308 308 308 309 309 308 308 308 308 308 308 308 308 308 308 308 309 308 309 309 308 309 309 309 309 310 311 312 313 314 314 315 314 314 312 312 313 314 315 314 314 314 314 315 315 317 317 316 318 318 318 318 319 320 318 317 319 319 317 317 317 315 315 316 315 313 312 314 314 312 312 315 314 314 315 314 313 313 314 314 313 312 311
308 308 307 307 307 307 307 308 309 310 309 308 308 309 309 308 309 309 309 309 309 309 309 309 309 309 309 309 309 310 311 312 313 313 313 314 315 314 315 314 312 313 314 314 315 314 314 314 315 315 316 316 316 317 318 318 318 319 319 319 319 320 318 315 316 316 315 315 315 315 313 312 313 313 312 313 315 315 315 316 316 316 316 315 315 315 314 312
308 307 306 306 306 307 308 308 309 310 309 308 309 309 309 309 309 309 309 309 309 309 309 309 309 309 308 309 309 311 312 314 314 314 314 315 315 314 314 315 314 314 314 314 315 314 313 314 314 315 316 316 315 316 318 318 318 318 318 319 320 318 317 316 315 315 315 313 313 314 313 313 313 311 311 313 315 316 317 317 317 316 316 316 316 316 315 313
308 307 306 306 306 308 309 308 308 310 309 308 309 309 309 309 308 309 309 309 309 309 309 309 309 308 308 309 310 311 313 315 315 315 315 315 315 314 314 315 314 314 314 314 314 313 313 314 314 314 315 315 316 316 317 317 317 317 318 319 319 316 317 317 316 315 313 311 311 313 314 314 312 311 312 313 315 316 317 317 317 316 316 316 315 315 314 313
310 308 308 308 307 308 309 308 309 309 309 309 309 309 309 309 309 309 309 309 309 309 309 309 308 308 307 308 310 312 314 314 314 315 316 315 315 314 314 315 315 314 314 314 313 313 313 314 314 315 315 315 316 315 315 316 315 317 318 318 318 317 317 317 316 314 312 311 313 314 314 313 312 314 314 313 314 315 316 316 316 316 316 315 314 313 312 312
311 311 310 310 310 310 309 309 310 309 309 309 309 309 309 309 309 309 309 309 309 310 309 309 309 309 307 308 311 313 314 314 313 314 315 315 314 314 315 315 315 314 314 314 313 314 313 313 314 314 314 314 315 315 315 315 314 316 317 317 317 317 317 317 315 314 312 313 314 314 314 313 315 316 315 314 314 314 315 315 315 316 316 315 313 312 312 312
313 313 312 312 312 311 311 310 310 310 309 309 309 309 309 309 309 309 309 309 309 309 310 310 310 309 308 310 313 312 313 314 313 313 313 314 314 314 315 316 315 315 315 314 314 314 313 313 314 313 314 315 314 314 313 314 315 315 317 317 316 315 315 316 314 313 313 313 314 314 313 315 315 315 314 314 314 314 315 315 315 315 314 313 312 312 311 312
314 313 312 313 313 312 312 312 312 312 310 309 310 310 310 311 310 310 309 309 309 308 309 309 309 310 310 310 313 311 312 313 312 313 313 313 314 315 316 316 315 314 314 314 314 314 314 314 314 313 314 314 313 314 313 313 315 315 316 316 315 315 315 314 312 312 313 313 312 312 313 314 313 312 313 314 314 314 314 314 314 313 313 312 312 312 311 311
314 313 313 313 312 312 314 315 315 314 313 312 312 312 312 312 312 311 310 310 309 308 308 309 309 311 311 310 311 311 313 314 313 313 313 313 314 315 316 316 315 314 315 313 313 314 314 315 314 313 314 313 312 313 312 313 313 313 313 313 313 313 313 312 311 312 312 311 311 312 313 314 312 310 313 314 314 313 313 313 313 312 312 312 312 312 312 311
314 313 312 312 313 314 316 316 316 316 316 315 315 315 315 314 313 312 312 311 310 309 308 308 308 309 309 310 311 311 312 313 313 313 314 314 315 315 316 316 315 315 315 313 313 314 314 315 313 313 313 312 312 311 311 311 311 310 310 311 312 313 312 311 310 311 311 310 310 311 312 313 311 310 312 313 313 312 311 312 312 312 312 312 312 312 312 311
314 313 313 313 313 315 316 316 317 316 316 316 317 317 316 316 315 314 313 312 311 309 308 307 308 309 309 310 311 311 311 311 312 312 313 315 315 315 316 316 316 315 315 314 313 313 312 312 312 313 312 311 311 310 309 309 309 309 309 311 312 312 312 312 312 311 310 310 309 310 311 312 312 312 312 313 314 312 310 311 311 312 312 312 312 311 311 311
314 313 313 313 313 315 316 316 317 317 317 317 317 317 317 317 316 315 314 312 311 310 309 308 309 308 309 312 312 311 310 309 310 311 312 314 314 314 315 315 315 315 315 314 312 312 311 311 312 312 310 310 311 309 308 308 308 309 309 310 312 312 312 312 311 308 309 310 308 309 310 312 314 314 313 314 312 310 309 310 311 311 312 312 312 311 311 312
315 314 313 313 314 314 315 316 317 317 317 317 317 318 318 318 317 316 313 312 311 311 310 308 309 308 310 313 311 310 311 309 309 310 311 312 312 312 313 313 314 313 313 311 310 311 311 310 311 311 309 309 310 309 309 309 309 310 310 310 311 312 313 312 309 307 309 309 308 310 310 311 313 314 314 313 310 309 309 311 311 311 311 311 312 311 311 312
318 316 315 313 313 313 314 315 316 317 317 318 318 318 318 317 317 315 313 312 312 311 310 308 308 308 310 312 311 310 311 310 310 310 310 311 311 312 311 311 311 311 311 311 310 310 310 310 310 310 309 309 309 310 311 311 311 311 311 312 313 312 313 313 310 309 310 309 307 309 311 312 313 313 313 312 308 308 309 310 311 311 311 311 311 312 311 311
320 320 318 316 314 314 314 314 315 316 317 318 318 319 318 317 314 313 312 312 312 311 309 310 309 307 310 313 311 311 311 311 311 311 310 310 311 312 311 310 310 310 310 310 310 309 309 310 310 309 310 309 310 311 312 312 313 312 311 313 314 313 313 313 311 310 310 309 308 309 311 312 312 313 312 311 310 309 310 310 311 311 311 311 311 311 311 311
321 320 320 319 319 317 316 316 316 316 317 318 318 319 317 314 313 312 311 310 311 310 308 310 309 308 311 311 311 311 310 310 311 311 311 310 311 311 310 310 310 310 310 309 309 309 309 310 309 309 310 310 311 312 313 315 314 313 313 313 313 313 311 311 312 311 309 308 309 309 309 310 311 311 311 311 311 310 310 310 310 311 311 311 311 311 311 311
321 321 321 320 321 321 319 319 319 317 318 317 319 318 314 314 313 312 311 310 309 310 309 309 309 312 315 312 310 311 309 309 311 311 311 311 310 311 311 310 310 310 311 310 310 310 310 310 310 312 313 311 311 312 315 315 315 315 314 313 313 312 311 311 311 311 310 309 310 309 309 310 310 311 311 311 311 310 310 310 310 310 310 311 311 311 311 311
321 321 321 320 320 321 322 321 321 320 318 318 319 316 313 315 313 310 311 310 310 313 314 311 311 316 318 313 310 310 310 310 311 311 311 310 310 310 310 310 310 311 311 313 312 310 311 311 312 314 315 314 312 313 315 316 314 314 313 313 313 312 311 311 311 311 310 309 310 310 310 311 310 310 310 311 311 311 311 310 310 310 311 311 311 311 312 312
321 321 321 321 321 321 322 322 321 321 318 318 318 315 314 316 316 313 311 311 312 314 315 313 312 314 315 313 311 311 312 311 310 311 310 310 310 310 309 309 311 312 312 314 314 309 310 314 314 315 316 316 314 313 314 314 312 311 312 312 312 312 312 312 312 312 309 309 310 310 310 311 310 310 311 311 311 311 311 311 311 312 312 312 312 312 313 312
322 321 321 321 321 320 322 321 321 321 318 318 318 316 314 313 316 317 312 313 315 312 312 312 311 312 313 312 310 311 312 310 310 311 310 309 310 311 311 310 312 313 312 313 312 308 310 314 315 315 315 313 312 312 312 311 310 311 311 312 312 313 313 312 312 311 308 308 310 310 310 310 310 310 311 311 311 311 311 312 312 312 312 313 313 313 313 313
323 322 321 322 321 321 322 321 321 321 318 318 317 313 310 309 311 311 309 314 315 310 309 310 309 309 310 310 308 310 311 311 312 311 310 309 310 312 311 310 312 314 311 310 311 311 312 314 315 314 312 310 309 309 309 310 310 311 311 312 312 313 313 312 311 309 306 307 310 310 309 310 311 311 312 312 311 311 312 312 312 312 312 312 312 312 313 312
324 323 322 323 321 321 323 322 321 320 318 318 315 311 310 309 308 307 308 312 313 311 310 309 309 308 309 310 308 309 310 311 312 311 311 310 310 311 311 311 312 313 311 311 313 315 315 315 313 312 310 309 310 309 309 310 310 311 312 312 313 314 314 313 311 308 307 308 309 309 310 311 312 312 312 311 311 311 312 312 312 311 311 311 312 312 312 310
324 323 323 323 322 323 323 322 322 320 318 317 315 313 311 308 306 306 309 313 314 314 310 308 309 309 309 309 308 309 311 310 310 311 310 310 310 310 311 312 312 312 311 312 313 315 317 314 310 310 310 309 311 311 310 311 312 313 313 313 313 314 313 313 311 309 309 310 308 309 313 313 313 313 313 313 312 312 311 311 312 312 311 311 312 312 310 308
323 322 322 323 324 322 322 322 321 319 318 317 316 314 312 309 307 306 310 316 318 315 311 309 309 309 308 307 308 309 309 309 308 308 308 309 310 310 310 310 311 314 313 312 311 313 315 311 308 310 310 309 311 311 313 313 313 314 314 313 312 312 312 312 312 310 311 312 309 310 315 315 313 313 314 314 315 314 313 313 312 311 311 311 310 309 308 307
323 322 321 323 324 322 321 322 319 318 320 318 316 315 313 311 308 307 310 319 323 319 315 312 311 310 307 307 307 307 311 311 306 305 307 308 308 309 310 309 309 311 312 310 311 313 312 308 308 311 311 312 312 311 313 313 312 314 314 312 310 311 312 312 312 311 312 314 310 310 315 317 314 313 314 314 315 315 314 314 313 311 310 309 309 307 306 305
322 321 320 321 322 321 322 321 319 320 321 319 317 315 314 312 308 306 313 324 326 320 316 312 310 310 308 306 305 308 315 312 306 306 306 308 308 307 310 310 309 309 307 309 313 312 310 308 308 310 311 313 312 312 313 311 312 315 314 311 310 310 312 312 311 311 312 312 311 310 313 316 315 314 314 314 315 314 314 314 313 311 309 308 307 305 304 303
319 319 319 320 321 321 321 321 321 321 322 320 318 317 315 312 307 307 318 331 328 317 314 311 308 308 307 305 305 307 308 306 308 309 304 305 307 307 310 311 310 310 305 309 316 312 309 311 312 311 311 312 313 314 313 311 312 314 312 309 309 310 311 311 311 312 311 311 313 313 312 315 316 314 313 312 312 314 314 314 313 310 309 307 305 303 302 302
319 319 319 320 321 322 321 321 321 321 321 320 318 318 316 311 308 313 323 329 325 315 312 310 308 307 307 307 306 306 305 304 308 308 304 306 307 306 309 308 308 309 306 307 315 313 309 308 309 310 312 312 313 312 310 311 312 311 309 309 310 310 310 310 311 311 311 312 316 315 312 315 316 314 313 311 312 314 314 313 312 310 307 305 303 302 301 300
318 319 320 320 320 321 320 320 321 321 321 319 319 318 316 313 314 321 327 326 322 316 311 309 309 308 307 309 309 307 307 306 306 306 307 307 307 306 305 304 305 308 308 307 311 311 307 304 305 309 311 311 310 307 307 311 311 308 310 311 311 310 309 309 309 310 312 315 317 314 313 314 315 315 314 313 311 312 312 312 312 309 305 304 302 301 300 299
316 317 319 320 320 320 320 321 321 321 321 320 319 317 316 319 322 325 326 322 319 316 312 310 310 308 309 311 312 309 308 307 305 308 309 308 308 308 306 307 308 310 311 310 311 311 308 306 307 309 309 308 309 308 306 307 308 308 310 310 312 312 310 310 310 310 315 318 315 312 312 313 314 315 313 311 310 309 310 311 311 308 304 303 301 300 299 298
314 315 317 319 320 320 320 321 321 321 321 320 318 318 320 323 323 324 323 319 318 319 315 312 310 309 310 311 313 310 309 309 307 307 310 310 311 311 311 312 312 313 316 313 313 313 311 311 309 309 308 306 309 311 308 306 307 309 309 309 312 315 315 315 314 313 316 318 312 309 312 313 313 314 312 312 312 309 308 308 307 305 302 301 300 299 298 297
313 314 315 317 319 320 319 320 320 320 320 318 319 321 322 323 322 322 322 320 319 318 315 314 311 310 310 313 314 311 310 311 308 307 309 309 310 312 313 313 310 314 316 312 313 314 315 314 309 309 309 307 308 311 311 311 309 308 310 311 314 317 318 319 318 314 316 316 310 307 311 313 313 313 313 312 310 306 304 304 303 303 301 300 299 298 297 296
313 314 315 316 317 318 319 319 320 320 319 318 321 323 322 322 322 322 323 322 319 316 314 314 312 311 312 314 314 311 313 313 308 307 309 309 310 312 313 311 308 310 312 311 312 313 316 318 313 311 312 309 308 310 313 314 310 309 311 312 314 317 318 319 318 317 318 317 310 307 311 314 313 313 311 308 305 303 303 302 301 301 300 299 298 297 296 295
312 313 314 315 317 317 317 318 319 320 319 319 323 325 323 322 322 321 322 321 320 318 315 314 316 317 317 316 314 310 313 315 310 308 310 311 312 313 314 312 309 309 311 313 313 312 315 318 314 311 310 308 309 310 312 314 313 310 309 310 313 315 316 317 318 318 318 317 314 311 313 314 313 313 310 306 303 303 302 301 300 299 299 298 297 296 295 295
310 311 312 314 316 317 318 319 319 319 319 321 324 324 323 321 320 321 321 317 318 320 318 317 319 322 321 319 317 313 313 313 311 311 312 311 312 312 314 314 310 309 311 315 317 316 316 318 313 310 308 307 308 309 307 310 313 310 308 312 312 312 314 315 316 316 314 316 317 315 315 314 313 314 312 306 304 303 301 300 299 298 298 297 296 295 294 294
307 309 311 313 315 317 318 319 319 318 318 322 323 322 322 320 318 320 321 318 315 318 322 321 320 322 322 321 320 316 315 314 313 314 315 314 314 312 312 313 310 309 310 313 315 315 316 317 314 311 311 309 306 306 306 308 311 310 310 312 311 311 311 312 314 316 315 317 318 316 317 316 314 315 313 308 305 304 301 299 298 297 297 296 295 294 293 293
306 308 311 313 313 315 318 319 318 316 317 322 323 321 319 319 318 318 319 318 316 317 322 321 320 322 322 322 321 317 316 318 315 315 317 317 316 313 312 313 310 307 307 309 312 313 312 315 316 314 313 309 305 307 309 309 309 309 312 312 311 313 314 313 314 315 317 318 318 317 316 315 314 314 313 310 307 304 301 299 298 296 296 295 294 294 293 292
306 310 312 312 312 313 316 318 316 316 318 321 322 321 319 319 320 319 318 318 318 318 320 320 319 322 322 322 324 321 318 319 318 317 318 317 316 314 313 313 312 307 307 310 314 315 312 314 317 316 313 310 307 309 312 311 309 308 310 312 311 312 314 314 315 315 317 318 318 318 316 315 314 313 312 311 307 303 302 299 297 296 294 294 293 293 292 292
308 312 313 312 312 314 315 315 315 316 320 322 321 320 319 318 319 319 316 317 319 319 319 322 321 321 322 322 322 322 320 320 319 319 319 317 316 317 315 314 314 310 308 310 313 313 313 314 316 316 314 312 311 312 312 313 312 310 310 311 310 311 313 313 313 315 316 317 318 318 316 315 312 310 309 308 304 303 301 299 297 295 294 293 293 292 292 292
310 312 314 311 312 315 315 315 316 318 320 321 320 319 319 317 317 317 315 314 318 318 317 321 321 319 321 320 319 322 322 322 321 319 319 318 317 318 317 314 314 312 310 313 313 312 313 315 315 315 315 314 314 314 312 312 313 312 311 312 312 312 314 314 314 315 315 315 316 316 317 317 310 304 304 304 302 301 299 297 296 295 294 293 292 292 292 291
310 310 312 311 313 315 315 317 318 318 320 320 319 318 317 317 316 316 315 313 315 317 316 318 320 318 319 319 318 321 322 321 321 319 319 319 317 317 315 312 313 313 313 316 315 313 313 314 314 315 314 313 313 312 311 310 311 311 312 313 313 313 313 314 315 315 314 315 315 315 317 316 307 301 302 302 300 299 297 296 296 294 294 293 292 292 291 291
310 310 311 312 313 314 316 319 319 319 319 318 317 317 316 316 316 315 315 315 315 316 316 317 317 316 317 317 317 319 319 318 318 318 318 319 316 314 312 312 313 314 316 317 316 314 312 311 313 315 314 313 313 313 311 309 310 312 312 311 312 312 313 314 313 311 312 314 315 315 317 316 306 300 300 299 297 297 296 295 295 294 293 293 292 291 291 291
309 309 310 311 312 314 315 317 318 319 318 316 316 316 315 315 316 315 314 315 315 315 316 316 316 315 317 316 316 317 317 316 316 315 317 318 315 310 309 312 312 313 315 316 314 312 311 312 314 314 315 314 314 314 312 310 310 312 312 312 312 312 314 315 313 310 310 312 314 314 316 316 307 300 298 297 296 296 295 294 294 294 293 292 291 290 290 290
305 306 309 309 309 311 315 315 315 317 316 316 315 314 314 314 314 314 314 314 314 315 316 316 315 315 315 315 316 316 315 315 315 315 315 316 315 311 309 311 311 312 312 311 310 309 310 313 314 313 315 315 314 314 314 313 312 311 311 312 312 312 313 312 312 312 312 313 313 313 314 313 305 298 297 298 297 296 295 294 293 293 292 292 291 290 290 290
304 304 307 309 308 309 312 312 313 315 314 314 314 313 313 313 312 312 313 313 313 314 314 315 314 313 314 314 315 315 314 314 315 315 314 314 315 314 310 308 310 311 312 310 308 307 308 311 313 312 312 313 312 312 312 313 312 311 312 312 312 313 311 310 309 311 311 311 312 312 311 311 307 302 300 299 298 297 296 294 293 293 292 292 291 290 290 290
305 305 305 308 309 308 310 310 311 314 313 312 312 311 311 312 311 310 311 311 311 312 313 313 312 313 313 313 313 313 312 313 313 314 313 312 313 313 309 308 308 308 310 310 308 307 308 309 310 311 310 310 309 309 309 310 310 310 310 311 310 311 310 310 310 310 309 310 311 310 309 311 310 308 306 301 297 297 296 294 293 293 292 292 292 290 290 289
303 303 301 302 306 308 309 309 309 311 313 312 312 310 309 310 310 310 310 309 309 311 312 311 311 312 312 312 312 312 312 312 312 312 312 311 311 311 308 308 307 304 306 307 306 307 309 308 307 309 309 308 307 307 307 308 308 308 308 308 308 308 309 309 309 308 308 309 309 308 309 309 308 308 307 301 296 296 295 293 292 292 292 292 292 291 290 289
298 299 297 298 302 304 304 304 306 308 311 312 311 310 308 308 309 309 308 308 309 310 311 310 310 311 311 310 311 312 312 310 310 309 310 310 309 307 306 308 306 302 303 305 304 306 308 308 307 308 308 308 307 307 307 307 307 307 307 307 307 306 307 307 307 307 307 307 308 307 307 307 306 306 304 298 294 293 293 291 291 291 291 292 292 291 290 289
297 299 298 297 299 299 298 299 302 306 309 310 311 310 308 308 308 307 307 307 307 308 309 309 308 308 308 309 309 310 311 309 308 308 307 308 308 306 305 305 303 301 302 303 304 305 306 307 306 306 306 306 306 305 305 304 304 304 304 304 304 304 305 305 305 305 305 305 304 303 304 305 302 300 298 295 293 292 291 291 290 290 291 291 292 292 291 289
294 295 296 299 299 298 297 298 300 303 305 306 307 308 308 308 307 306 306 305 304 306 306 305 304 304 305 306 306 307 306 305 305 303 302 303 303 303 303 302 300 300 301 301 302 304 305 305 305 304 305 305 304 303 302 302 302 302 302 302 302 302 302 302 302 302 302 302 302 302 303 303 298 294 294 295 293 291 291 290 290 290 290 291 291 292 291 290
293 293 294 298 300 298 296 297 299 301 303 303 304 305 304 303 303 304 305 302 299 300 301 300 301 302 303 304 305 303 301 300 300 299 298 298 298 299 299 299 299 299 300 300 301 302 303 303 303 304 304 304 303 302 301 300 302 302 303 302 301 301 301 301 301 301 301 301 302 302 300 298 295 293 293 293 293 292 291 291 290 290 290 290 291 291 291 290
Wind_Speed
6 6 6 6 6 5 5 5 5 4 4 4 3 4 4 4 5 5 5 5 5 5 5 6 6 7 7 8 9 10 11 14 12 7 6 6 4 4 7 5 3 9 12 9 10 10 8 6 6 6 6 4 1 0 1 1 1 3 3 3 4 4 4 4 7 6 1 5 5 2 3 5 6 2 1 2 7 11 11 10 10 10 12 15 15 14 15 13
7 7 6 6 6 6 6 6 5 5 5 4 4 4 5 5 6 6 6 6 6 6 6 6 6 7 7 8 9 9 12 14 10 9 9 5 1 2 5 7 5 8 13 12 12 10 7 7 7 6 5 3 0 0 2 1 2 4 2 3 5 4 3 4 7 6 4 7 7 4 3 4 6 3 1 5 11 10 13 14 10 12 16 17 17 20 21 17
6 6 6 6 6 6 6 7 7 6 6 5 6 6 6 7 7 7 8 7 8 8 8 8 7 8 8 8 9 9 12 12 8 6 5 6 3 1 1 6 7 8 13 13 12 11 7 7 9 7 4 2 1 1 2 2 3 3 3 6 7 5 4 5 7 7 8 7 9 8 2 4 6 3 2 6 13 13 14 15 10 11 14 12 13 15 15 14
6 6 6 6 6 6 6 7 7 7 7 6 6 7 7 7 8 8 9 9 9 10 10 10 9 9 8 8 8 9 11 8 4 3 9 6 2 2 0 4 8 10 13 12 11 10 7 8 9 4 3 3 1 1 4 4 3 2 4 8 5 2 4 7 9 10 8 4 7 8 5 7 6 3 6 7 9 14 13 11 11 13 14 13 10 9 8 9
7 6 6 6 6 6 7 7 7 8 7 6 6 7 7 8 8 9 9 10 10 11 12 12 11 10 9 8 6 8 8 5 2 7 6 3 1 2 2 4 9 11 14 13 11 11 8 9 7 3 3 4 3 3 5 5 2 2 7 11 6 2 5 7 6 7 4 1 5 7 8 7 2 4 10 10 9 12 12 8 9 13 15 15 11 7 6 7
8 7 7 6 6 7 7 7 7 7 7 6 6 6 7 8 8 9 10 10 10 11 12 12 12 10 9 6 4 4 4 4 2 5 4 5 5 4 3 6 10 13 15 14 13 11 8 8 7 4 3 4 6 6 4 5 4 6 8 8 9 6 8 7 2 3 3 4 6 7 7 4 5 11 11 14 15 17 19 16 15 15 15 13 10 9 9 10
8 8 8 7 7 7 7 7 6 6 6 6 6 7 7 8 9 10 10 11 11 10 11 11 11 9 7 3 1 2 1 5 6 7 9 9 7 5 6 8 13 16 16 14 13 10 7 8 8 4 4 4 6 8 3 4 5 7 8 6 8 7 10 9 2 3 4 7 9 7 8 9 13 12 8 13 16 19 23 21 18 18 17 13 11 14 14 14
8 9 8 7 7 8 8 7 7 7 7 7 7 7 8 9 10 10 11 11 11 11 11 10 9 8 4 1 2 0 2 8 11 11 13 11 8 6 7 10 15 16 15 15 13 10 7 8 8 4 5 6 3 5 4 3 6 9 11 7 5 5 9 9 3 5 7 8 8 7 12 18 17 11 13 16 15 18 22 21 18 16 16 13 13 16 15 15
9 10 9 8 8 9 9 9 9 9 9 9 9 9 10 11 11 11 12 12 12 12 11 10 8 6 2 3 2 3 5 9 12 12 12 9 7 7 10 12 16 18 15 14 12 10 8 8 8 6 5 4 4 4 4 5 6 7 10 7 5 8 9 7 6 8 9 7 5 7 17 21 11 7 16 17 14 18 18 18 16 12 13 13 13 14 13 14
10 11 9 8 9 9 10 10 11 11 11 11 11 12 12 13 13 13 13 14 14 13 12 11 7 4 2 4 4 5 5 7 9 9 9 7 6 8 13 12 16 19 13 11 11 10 8 6 5 3 2 1 4 4 4 5 2 0 5 8 10 12 10 6 7 10 9 6 7 10 19 19 3 2 12 7 5 8 9 13 13 10 12 13 12 11 11 12
10 10 9 9 9 9 10 11 11 12 12 12 13 14 14 15 14 15 15 15 15 14 13 11 6 4 4 5 5 6 4 5 6 7 8 7 6 10 13 11 14 18 12 8 11 12 7 3 7 4 1 1 3 3 3 3 3 4 4 10 13 13 11 9 10 11 8 5 8 11 17 18 4 3 15 11 3 2 5 13 14 12 13 13 13 11 9 10
9 9 10 10 9 9 9 10 11 12 13 13 14 15 15 16 15 16 16 15 15 15 13 10 6 4 4 4 8 10 8 8 8 8 8 7 7 9 10 9 13 17 13 7 9 14 7 4 11 5 1 3 1 2 2 1 2 3 3 9 13 12 14 13 10 7 6 4 5 7 10 14 9 10 18 17 9 3 6 13 14 14 13 11 11 10 9 10
8 9 9 9 9 9 9 10 11 12 13 14 14 15 16 16 16 16 16 15 15 14 12 8 5 5 3 4 6 10 12 12 12 11 8 7 7 8 8 9 12 15 13 6 4 11 10 8 11 5 1 3 3 2 2 1 1 4 2 4 10 11 11 6 3 1 3 4 7 6 6 10 11 13 15 11 7 7 9 13 12 12 12 11 10 9 11 13
7 8 9 9 9 9 9 10 11 12 13 15 15 16 16 16 16 15 14 14 13 12 10 7 5 5 3 5 3 5 9 11 12 11 9 8 8 8 8 9 12 12 10 6 1 5 11 9 6 2 1 2 1 2 2 1 2 5 2 2 5 8 6 2 5 3 3 4 8 7 6 10 15 16 11 2 3 7 11 15 13 11 13 13 13 12 14 14
8 8 9 9 9 10 10 11 12 13 13 15 17 17 18 17 15 13 12 11 10 8 5 3 6 5 2 6 4 4 6 7 9 11 10 11 10 7 8 9 9 8 7 6 3 5 10 9 4 2 1 1 1 3 4 3 3 3 3 5 4 5 8 4 3 6 6 2 7 9 5 9 14 16 12 2 2 4 10 17 18 16 16 17 15 14 14 14
9 9 9 9 9 10 11 12 13 14 14 17 18 18 20 17 11 10 9 7 5 2 3 4 8 5 4 4 2 3 4 4 6 8 9 12 10 7 9 10 8 7 6 6 7 8 9 6 2 1 1 2 3 3 3 5 5 4 4 7 6 6 8 8 4 5 5 3 7 10 7 9 11 16 16 7 4 8 13 20 22 19 19 18 16 14 13 12
9 10 10 11 11 11 11 13 14 15 16 17 18 19 18 12 7 7 5 2 3 7 6 4 7 3 4 3 3 3 1 3 4 4 8 11 10 10 12 8 6 9 10 9 9 8 4 2 1 0 2 2 2 2 3 6 6 4 4 5 6 8 8 8 7 2 5 5 6 10 10 12 14 18 22 19 16 16 18 21 20 18 18 18 16 15 13 12
9 10 10 11 12 12 12 13 15 16 17 17 18 19 13 7 5 3 4 5 8 8 5 4 5 2 4 3 2 1 3 3 4 4 8 10 10 12 10 6 6 10 10 6 4 3 0 1 1 3 4 3 4 4 5 7 9 9 6 6 7 7 8 9 10 5 1 4 7 9 12 14 16 18 20 22 21 19 18 18 17 17 20 19 15 13 13 12
6 8 10 11 12 12 12 14 15 16 18 17 18 15 7 4 3 3 4 3 3 2 0 3 5 2 2 2 1 1 4 6 5 5 8 10 12 11 7 7 8 7 7 4 3 3 2 2 2 3 5 7 8 9 11 11 10 10 7 8 10 8 9 12 14 8 4 8 11 12 14 13 13 16 19 21 21 19 16 14 14 16 17 14 10 10 11 12
6 8 8 9 12 13 12 14 16 17 17 17 16 10 2 3 2 1 2 2 4 4 3 3 7 4 5 2 2 3 4 4 3 3 9 12 13 10 6 5 5 2 4 4 4 3 2 4 5 7 10 9 9 12 14 9 5 5 6 8 10 10 12 14 15 9 3 4 9 11 15 15 14 16 20 22 20 18 16 15 16 17 13 8 8 10 10 11
9 10 8 8 11 13 13 14 16 16 15 14 13 5 1 2 2 2 3 5 9 8 7 9 8 8 12 4 4 4 1 1 2 4 10 13 11 8 5 4 5 4 2 2 4 3 3 6 8 14 12 4 3 7 10 8 8 9 8 9 9 10 12 11 14 8 4 1 6 8 13 16 17 19 20 19 16 15 16 17 15 13 12 9 9 12 11 10
12 9 8 8 9 11 12 14 15 14 11 11 9 4 2 1 3 2 2 5 7 6 9 11 6 8 15 9 3 2 1 4 2 4 9 9 5 4 4 5 5 4 3 4 3 3 4 8 13 14 4 2 2 4 6 9 10 9 6 6 6 9 10 9 9 2 3 2 6 8 11 14 19 21 18 14 11 14 15 11 8 7 10 10 10 11 11 11
11 8 7 7 8 9 10 12 15 12 9 8 7 3 1 1 2 2 2 4 6 4 6 8 5 7 10 7 4 5 6 8 4 3 9 9 2 1 4 6 5 2 4 7 7 5 5 7 12 9 3 4 7 5 7 7 7 7 6 5 7 9 7 6 5 1 2 5 6 10 10 12 15 12 10 9 8 11 8 5 4 5 7 9 9 8 9 12
10 9 6 4 6 8 7 11 12 8 7 7 4 3 3 1 2 3 2 3 4 5 3 3 3 5 4 2 3 7 7 5 2 3 8 9 4 3 4 6 5 3 6 11 10 9 9 3 1 2 4 8 10 7 9 7 6 7 8 8 10 10 9 10 5 5 9 6 2 9 9 6 5 3 3 3 6 8 2 2 3 2 3 5 5 6 10 12
8 8 5 4 6 5 6 9 6 4 8 5 2 4 4 2 2 3 2 3 3 3 1 2 2 2 1 1 2 4 4 3 0 0 4 6 4 4 3 2 3 7 8 8 7 9 10 1 4 3 3 5 8 8 9 7 6 7 8 12 14 13 12 12 7 5 7 3 2 8 8 2 4 5 2 2 8 8 0 2 4 6 5 3 6 10 12 13
8 7 6 6 4 4 5 5 1 5 8 2 1 5 4 3 1 3 1 3 3 1 1 1 1 2 2 2 1 2 4 2 1 2 1 2 1 2 3 2 1 3 3 4 3 5 4 1 3 5 4 5 6 8 7 7 6 6 3 5 9 10 9 9 7 3 4 3 1 3 5 5 5 6 3 5 11 9 2 4 5 8 6 6 9 11 12 13
11 10 9 8 7 6 4 1 2 5 4 1 2 5 4 3 1 3 1 3 3 0 2 0 1 0 1 1 2 2 2 0 2 2 1 1 0 1 3 4 3 1 3 3 2 2 2 2 3 4 6 6 6 8 6 9 7 4 1 1 2 4 4 4 4 3 3 5 2 3 4 7 6 5 7 8 9 7 0 4 7 8 8 9 11 13 14 15
10 8 7 8 8 8 6 3 3 4 3 2 4 4 4 2 2 1 2 3 3 1 1 1 2 1 1 1 2 1 0 2 1 1 2 2 1 1 3 5 4 3 3 3 4 1 2 3 4 6 6 6 6 3 5 11 7 1 2 1 2 1 1 3 3 4 3 4 4 4 4 6 6 4 6 4 4 5 3 7 9 10 11 12 13 15 16 15
6 4 4 7 7 5 6 6 4 4 5 3 3 4 5 2 2 0 1 2 1 1 1 1 2 1 2 1 1 2 1 1 1 1 1 0 0 1 2 2 2 3 2 3 6 2 2 1 3 5 5 5 3 2 2 9 5 1 4 3 3 3 1 1 2 3 2 5 5 7 8 6 6 3 6 1 2 5 3 7 8 11 13 14 15 15 15 13
6 5 4 6 7 6 6 8 9 9 7 5 3 5 4 2 1 2 3 3 1 1 1 1 1 0 1 3 1 1 0 1 2 1 1 1 1 3 1 0 1 2 2 2 6 3 2 1 1 3 4 1 3 4 3 1 1 2 3 1 1 1 1 1 1 2 3 7 4 9 12 7 5 2 5 2 0 2 5 6 6 12 15 15 14 14 13 12
6 7 8 8 7 7 6 4 8 9 7 5 2 3 3 1 1 4 5 2 1 1 2 1 1 1 2 2 1 1 0 1 1 1 1 1 1 1 0 2 1 1 2 3 5 3 2 3 2 2 1 1 4 3 3 2 0 2 1 2 3 2 2 1 1 1 4 7 0 5 8 8 7 3 2 2 2 3 4 6 7 12 14 13 12 12 11 11
4 6 9 11 9 8 7 2 3 7 7 4 1 1 1 1 3 5 2 0 1 1 2 1 0 2 2 1 1 1 1 1 2 1 1 1 2 2 3 3 1 2 4 2 2 2 2 4 2 1 0 3 3 2 1 1 2 3 1 2 4 4 2 3 2 2 5 5 1 2 4 7 10 6 3 5 2 5 5 7 10 12 12 12 10 10 10 9
5 4 6 11 13 12 10 6 2 5 7 6 2 1 1 3 5 3 3 3 1 1 1 1 1 2 2 2 2 2 1 1 3 2 1 2 2 3 4 2 1 3 3 1 1 3 3 1 3 2 2 6 9 6 4 3 5 7 5 4 4 4 5 5 4 3 6 4 2 2 4 5 9 6 5 6 4 11 10 11 12 12 11 10 9 9 9 9
7 5 5 8 13 15 14 12 7 4 6 5 2 1 3 7 3 1 4 5 2 1 2 2 2 2 1 1 1 2 3 1 3 2 1 2 2 3 4 4 4 2 1 1 2 3 5 5 5 7 2 7 13 11 4 2 4 6 3 3 5 5 6 7 6 6 8 5 2 3 3 3 5 1 5 7 10 12 11 11 11 11 9 7 8 8 9 10
9 8 7 7 12 15 15 14 11 8 7 5 2 4 7 7 2 1 3 3 2 1 1 1 1 1 1 2 0 1 4 2 3 2 2 3 3 2 2 3 5 4 2 3 2 3 7 7 2 3 1 6 11 5 1 3 2 3 2 2 5 4 6 7 7 6 5 6 3 3 3 4 3 3 3 11 13 11 10 10 10 9 8 7 8 9 10 10
10 9 9 9 12 16 17 15 13 13 10 5 4 7 7 5 2 2 2 0 1 0 1 1 2 2 3 2 0 1 2 2 1 2 3 3 3 3 3 1 5 9 6 3 2 1 5 5 3 3 2 4 3 1 1 1 2 3 3 4 2 1 3 6 7 1 1 7 6 5 7 6 6 9 3 12 12 9 8 9 9 9 8 9 9 9 9 9
10 9 8 10 13 17 19 17 16 16 9 4 7 8 4 3 4 4 2 1 1 1 1 2 2 2 2 1 1 1 2 1 2 2 2 2 2 4 4 2 3 8 5 0 1 1 4 6 1 2 3 1 2 2 1 2 1 3 3 2 1 1 1 3 4 1 4 9 7 7 13 11 9 7 4 12 10 7 6 7 7 8 9 9 9 8 8 8
9 7 5 11 16 17 18 21 20 15 5 3 10 10 4 3 4 4 3 2 1 0 1 4 3 1 1 3 2 2 3 3 2 2 1 2 3 3 3 1 2 2 0 3 0 1 3 6 3 1 2 1 2 2 3 1 0 1 2 3 2 2 3 3 3 2 6 9 6 9 15 13 10 10 8 4 8 7 5 5 6 7 8 7 6 6 6 6
9 4 2 9 16 16 18 24 21 11 3 6 10 9 4 4 3 2 2 2 0 1 3 6 5 2 3 4 2 1 3 3 2 2 2 3 4 2 3 2 2 2 1 2 1 1 2 4 5 1 2 2 2 3 5 3 2 1 2 1 0 2 4 3 2 2 5 9 9 10 12 10 9 9 11 3 9 8 5 6 6 6 6 5 4 4 4 4
7 2 1 5 14 17 19 21 14 5 5 8 9 6 2 2 1 1 1 1 1 2 3 4 5 5 4 2 1 1 2 3 3 4 4 3 5 4 1 2 3 3 1 2 2 2 1 3 5 2 1 2 3 5 6 6 4 4 5 4 3 3 2 3 3 3 6 9 10 10 11 9 4 3 2 6 9 6 5 6 5 5 5 4 4 4 4 4
4 2 1 4 14 20 19 13 6 4 6 7 8 6 2 1 1 0 0 1 0 1 0 1 3 4 2 1 2 1 1 2 3 5 4 3 6 6 1 1 1 4 2 1 3 3 2 2 5 6 5 7 8 6 5 6 5 4 5 6 6 6 5 7 9 7 7 9 8 10 12 8 1 3 5 8 7 5 6 6 5 5 4 4 5 5 5 6
2 2 2 7 19 24 15 6 3 3 5 6 5 3 1 1 2 2 1 1 0 1 0 1 3 3 3 5 5 2 1 3 4 5 4 4 7 6 1 3 1 3 2 1 1 1 0 1 5 9 9 11 14 11 3 2 2 3 4 5 5 6 6 9 11 8 7 9 7 9 12 5 1 2 4 7 6 6 5 5 6 5 3 5 5 6 6 6
3 2 2 8 21 23 11 5 6 4 3 3 1 2 2 1 1 2 2 1 1 2 2 2 3 5 6 6 5 4 3 4 5 6 5 5 6 4 3 3 0 2 0 2 2 1 1 1 5 7 8 9 12 10 2 3 3 2 4 4 4 6 7 9 8 4 5 8 7 9 10 4 2 2 4 7 6 5 4 5 5 4 3 4 4 5 6 5
2 2 2 6 16 17 9 7 7 5 6 5 5 8 7 3 3 3 3 3 3 2 2 2 3 5 4 2 2 4 3 3 5 5 4 3 2 0 3 3 1 1 0 1 1 1 0 3 3 5 7 6 7 7 4 2 2 1 2 2 3 5 7 8 6 4 4 8 11 12 10 3 2 3 4 5 6 5 5 5 4 4 3 3 2 2 3 4
2 1 1 1 4 6 6 4 4 7 10 10 10 12 10 6 3 4 6 6 4 3 3 3 2 3 4 1 1 1 3 4 4 2 1 2 2 0 2 4 2 1 1 3 3 1 2 2 2 4 7 6 7 7 4 1 0 1 1 3 4 6 7 6 5 6 6 7 9 9 7 2 3 4 5 6 6 7 6 5 4 4 3 3 2 1 1 2
2 1 1 1 2 1 2 1 2 6 9 10 9 9 12 12 5 2 5 7 6 5 6 5 1 1 4 4 4 7 7 7 5 3 4 4 2 1 0 2 2 1 3 5 5 2 1 3 5 8 9 9 11 10 6 3 6 7 7 8 8 9 9 7 6 7 7 7 8 9 11 10 5 6 8 8 7 7 7 6 5 5 5 4 3 2 1 1
1 1 3 3 1 2 3 1 2 4 5 8 7 5 9 13 8 3 4 4 4 5 6 5 3 5 6 5 7 9 9 9 9 8 9 8 4 2 1 2 1 1 1 4 4 2 2 6 10 13 14 14 16 17 14 12 14 15 14 14 14 14 14 12 13 12 10 10 7 8 13 14 11 9 7 9 8 7 6 6 5 5 5 4 3 3 2 2
1 1 1 1 1 3 4 3 4 4 5 8 6 5 8 10 7 5 3 1 0 2 4 3 5 10 11 8 6 6 6 8 8 8 8 6 4 3 2 2 1 1 1 3 2 2 4 9 12 14 16 17 18 20 19 17 16 16 17 18 18 19 19 19 19 18 15 14 11 11 16 17 16 16 8 6 7 6 6 5 3 3 4 4 3 3 2 3
1 1 1 2 1 1 0 1 2 5 7 6 5 9 12 12 11 7 1 1 1 1 3 6 5 5 7 7 6 5 6 6 7 6 3 1 2 2 3 4 2 1 1 3 3 3 5 8 11 12 13 13 14 15 14 13 13 13 14 16 16 18 21 20 19 19 17 17 16 17 19 20 17 13 4 6 5 4 4 3 2 3 4 4 4 4 3 4
1 1 1 2 2 3 2 3 3 5 8 6 6 9 10 12 14 8 1 1 6 3 2 6 5 1 1 3 3 6 6 3 6 6 0 0 3 1 1 3 1 2 2 3 2 3 5 6 5 5 7 8 10 10 10 11 12 13 14 15 17 19 19 18 16 16 15 15 16 17 19 17 9 1 5 6 5 3 2 3 2 2 3 4 5 5 4 5
2 2 1 2 2 4 3 2 3 5 7 9 10 9 8 10 11 7 2 1 3 4 2 2 1 1 1 3 5 7 3 3 1 2 2 1 4 2 0 0 1 3 4 2 2 3 4 3 2 3 7 8 9 12 13 14 15 17 17 18 20 19 17 15 15 13 12 15 18 19 17 11 1 5 5 5 5 3 3 3 3 2 2 4 5 6 5 5
2 2 1 1 1 3 4 3 4 5 4 5 6 4 3 4 2 4 6 1 5 3 3 4 2 0 3 5 5 4 3 5 3 3 3 3 3 2 3 3 2 3 2 1 2 2 3 3 3 5 6 6 8 9 7 6 9 12 12 15 18 19 18 18 16 15 17 18 16 13 9 3 4 5 4 4 5 4 4 4 4 4 4 5 6 7 7 7
Wind_Direction
25 23 18 14 9 9 7 4 2 359 357 351 351 343 334 331 327 327 325 324 324 323 325 325 325 326 325 324 328 332 330 323 314 291 266 273 288 243 224 223 211 202 195 172 159 151 135 156 160 155 165 157 311 337 140 16 165 217 222 236 247 238 225 197 216 218 276 298 273 199 172 251 285 261 202 263 242 247 257 249 231 233 242 242 251 265 267 270
20 16 15 10 5 4 359 355 351 349 349 340 334 332 327 322 319 318 315 315 313 312 312 313 314 314 317 318 325 331 324 316 301 275 262 240 224 278 241 228 216 195 186 176 171 163 159 174 163 166 183 187 223 134 213 186 196 225 215 240 244 237 214 198 228 225 237 278 289 278 199 228 276 300 39 270 272 262 265 268 237 235 247 244 247 252 253 257
19 16 11 5 5 3 355 349 344 345 344 333 327 325 325 319 315 314 311 311 310 309 308 306 309 312 315 320 328 335 327 313 296 273 203 155 133 28 242 220 210 188 185 188 184 181 187 175 164 173 190 211 171 153 219 174 193 223 214 247 248 237 232 221 233 235 243 273 289 282 249 233 255 249 201 258 282 277 263 268 255 250 262 252 240 241 242 241
15 11 3 358 0 358 352 347 342 343 338 331 328 324 326 320 314 312 309 311 311 308 307 307 311 315 320 325 333 339 329 306 288 161 152 148 90 74 222 214 197 184 183 189 187 186 181 154 157 172 201 213 155 206 224 192 192 181 202 246 254 205 243 234 223 237 251 273 276 279 287 273 262 205 221 245 279 278 264 258 255 266 283 281 264 246 231 228
10 6 359 353 352 347 347 347 344 343 340 338 332 328 327 319 313 310 308 310 312 310 308 309 312 318 325 329 338 341 331 315 156 148 165 217 294 343 286 203 190 183 178 180 173 167 158 146 150 148 210 218 169 201 223 190 170 201 222 248 258 189 255 250 217 233 242 231 257 263 276 286 291 223 228 230 248 268 276 277 265 271 281 286 286 271 239 235
6 4 357 351 349 343 347 350 347 346 345 343 335 334 327 319 315 312 312 312 313 312 307 309 312 319 326 332 340 343 319 304 178 183 237 256 272 298 244 195 184 180 178 175 156 155 154 152 175 181 205 230 204 214 220 165 175 245 236 240 251 234 248 257 195 196 186 209 247 256 281 300 272 267 240 221 232 254 273 282 280 280 279 280 286 275 255 247
4 1 355 354 352 348 352 351 350 352 350 344 336 334 326 322 319 315 316 314 315 313 309 310 313 319 327 341 18 46 282 267 257 254 268 263 266 264 214 190 183 183 180 170 156 166 166 168 198 197 204 230 218 218 202 155 188 248 254 238 249 245 246 256 228 198 209 234 254 274 295 279 262 272 255 225 230 251 269 276 275 277 278 276 273 269 264 259
2 358 353 353 355 357 360 359 1 359 352 346 338 333 327 324 319 317 316 312 313 309 307 308 311 320 326 138 162 59 208 249 267 272 272 266 256 234 202 183 183 185 182 181 174 174 171 183 197 170 218 234 209 205 175 190 209 227 251 252 242 249 250 258 247 231 244 245 257 280 278 269 265 274 275 260 245 250 263 271 272 273 275 272 264 264 264 262
359 357 354 354 0 3 7 11 10 4 357 350 341 335 330 325 321 318 314 311 309 304 304 304 307 316 297 143 165 252 228 250 270 273 271 260 242 211 189 184 186 185 188 196 185 174 179 199 199 185 240 238 192 204 178 216 230 216 246 269 260 265 265 263 257 245 249 243 226 253 266 268 274 291 276 265 246 246 257 268 274 274 273 271 262 259 258 259
0 0 1 5 10 12 17 19 15 10 2 353 345 338 331 326 322 317 314 310 305 301 298 295 298 293 228 152 187 251 248 258 268 264 262 247 222 192 187 193 189 187 190 195 190 185 194 208 181 173 287 254 201 211 174 212 267 328 272 290 273 271 275 256 258 256 252 245 206 229 264 269 283 346 272 256 200 229 255 270 277 272 269 272 267 264 259 255
5 8 12 16 20 19 22 22 19 14 5 357 347 338 332 326 320 316 313 307 301 298 293 288 280 250 199 170 217 254 248 251 262 256 250 229 198 188 194 201 194 194 191 187 201 201 211 205 136 129 303 174 197 197 193 242 326 358 320 295 278 276 279 249 247 252 240 236 206 220 263 271 258 227 259 261 220 187 276 277 279 276 271 272 272 273 267 258
9 15 16 17 22 20 19 21 19 13 7 359 347 340 333 326 320 316 311 305 301 296 289 281 258 214 182 201 236 247 244 243 256 257 246 216 190 189 195 201 198 201 199 194 215 210 216 176 163 183 224 153 216 201 227 280 320 314 310 293 288 287 285 264 251 242 209 209 183 198 262 271 243 224 249 263 269 283 285 277 278 278 275 273 271 271 268 266
11 17 16 14 17 16 14 13 11 8 4 357 348 340 332 326 321 315 311 307 302 294 286 274 241 195 198 257 237 238 245 243 249 253 240 212 190 189 192 195 196 203 211 214 229 213 204 176 180 209 138 203 263 110 167 137 218 276 247 285 295 291 285 261 231 146 173 188 160 181 267 282 263 250 254 265 291 310 290 277 277 276 278 279 270 268 269 269
9 12 11 8 10 11 7 3 0 358 356 352 346 337 330 325 318 314 313 310 304 292 279 258 215 174 205 266 249 233 241 239 241 239 229 209 185 175 180 189 194 201 211 210 226 201 192 175 167 193 149 237 290 116 221 218 220 274 270 244 276 280 282 128 126 143 217 180 161 198 261 278 281 284 281 309 7 317 296 288 283 275 279 282 276 273 271 271
5 5 3 0 2 5 0 357 354 349 348 346 341 335 328 322 315 314 314 311 306 286 264 208 175 164 253 268 257 249 239 235 231 227 226 209 185 168 172 177 179 184 189 188 177 165 173 165 155 206 179 148 206 234 268 291 246 249 271 261 231 238 272 285 169 193 239 214 170 206 256 271 276 291 296 27 84 284 288 289 287 284 283 284 283 279 275 276
355 355 356 357 357 359 357 354 352 348 346 343 340 334 328 322 316 317 319 316 302 217 154 156 163 166 292 271 242 253 232 221 219 220 217 202 195 177 155 147 138 141 143 138 137 135 143 153 165 279 262 205 216 234 269 283 260 210 228 264 260 253 278 296 265 202 207 180 191 219 257 280 280 295 298 289 263 275 282 283 285 289 288 287 286 283 282 286
339 343 349 353 351 354 356 353 351 349 346 345 342 335 329 324 320 331 346 37 109 119 119 142 148 156 266 239 250 265 195 196 203 197 195 191 194 173 143 123 112 120 116 113 124 123 121 149 159 241 219 227 201 202 253 265 262 240 224 245 259 257 272 292 288 256 155 174 218 228 242 265 273 287 292 288 285 280 276 279 285 290 288 285 284 286 291 297
328 336 339 343 343 349 356 353 350 349 348 348 345 335 331 331 331 19 67 99 108 109 102 119 140 202 236 207 247 255 91 134 150 143 172 170 171 168 145 125 132 129 122 116 131 140 141 149 220 243 219 209 191 199 231 244 261 276 274 272 278 259 256 271 276 284 224 248 268 253 247 263 272 276 281 283 283 276 270 277 286 285 280 280 285 293 298 299
320 327 328 333 334 339 352 354 352 351 348 351 349 337 338 354 336 93 76 72 120 161 48 156 185 257 271 233 269 103 102 121 129 132 152 150 155 155 131 126 134 139 146 155 177 166 162 157 176 236 229 219 203 204 228 244 269 287 291 284 286 285 272 270 270 276 305 294 286 277 273 279 281 278 281 281 279 277 277 283 283 275 274 282 295 296 296 298
305 306 313 325 325 330 343 350 352 352 350 355 355 339 344 10 324 122 20 285 242 269 324 223 216 267 292 277 116 138 136 137 137 147 154 151 150 136 108 122 128 152 176 172 165 141 197 199 190 229 241 238 211 213 237 259 295 285 276 272 272 280 277 276 279 288 17 307 278 280 290 296 291 280 277 277 279 286 287 278 269 270 282 303 305 294 296 299
295 294 303 312 317 328 339 343 347 352 352 358 4 0 69 10 314 329 333 275 254 256 265 250 230 254 268 267 129 146 119 191 143 132 156 154 154 153 147 161 162 183 185 110 108 108 219 210 215 235 245 263 218 223 245 258 261 254 257 270 271 268 268 274 286 304 42 315 269 277 293 300 293 280 272 274 284 286 277 268 267 280 296 305 304 303 309 310
294 294 301 314 327 336 341 343 345 350 352 3 25 59 128 289 270 272 307 284 271 247 246 252 245 254 260 265 240 193 313 258 198 134 159 152 165 200 161 165 193 193 143 124 133 156 208 222 232 236 228 70 220 221 232 242 251 251 247 263 269 266 271 271 272 302 79 283 292 301 302 292 278 275 279 282 276 266 264 271 289 304 297 299 311 317 322 329
300 302 311 333 342 336 340 343 342 348 355 9 41 76 51 301 237 189 201 278 284 258 239 247 246 248 257 269 244 199 224 246 232 165 168 159 173 217 160 180 201 169 151 189 207 206 214 231 240 238 153 208 238 225 225 241 247 238 235 253 259 263 276 269 248 64 334 282 293 296 289 276 267 262 273 276 251 253 274 302 291 277 285 301 313 322 339 348
291 292 305 334 320 318 331 333 333 344 353 6 39 31 13 0 172 164 222 269 276 272 256 231 233 245 260 280 185 190 214 236 228 176 172 172 168 143 184 193 183 195 205 211 217 233 246 241 184 211 184 219 240 236 230 241 250 232 221 235 254 261 265 265 277 348 309 275 279 300 286 263 254 176 177 250 249 254 296 350 296 286 295 303 325 1 19 15
268 274 271 275 284 298 318 322 328 342 341 348 22 8 20 29 143 164 270 283 251 270 258 169 205 225 206 110 145 183 200 192 202 186 169 184 173 140 174 173 197 226 213 199 213 249 261 241 112 152 176 202 227 242 231 220 253 255 223 227 247 263 270 274 293 341 302 256 64 339 322 260 185 159 123 309 268 263 106 347 353 40 6 356 36 32 33 28
241 252 241 239 256 283 308 318 317 334 337 329 346 359 10 10 135 179 278 295 255 248 125 182 201 175 149 77 37 163 176 177 33 25 139 198 202 168 187 147 179 252 182 158 209 250 259 67 135 190 186 177 212 249 227 190 238 266 235 224 239 255 268 276 287 306 288 283 26 345 310 281 227 198 213 236 251 266 339 343 24 65 33 29 49 40 37 34
243 247 237 227 237 254 267 287 277 311 330 265 330 354 356 358 131 191 267 283 275 106 107 309 347 109 147 37 0 180 185 157 82 63 35 342 257 194 214 186 165 189 147 160 248 228 168 115 117 177 193 193 216 249 208 177 218 255 106 84 193 227 245 237 254 256 274 306 291 199 237 284 268 201 207 220 243 262 239 39 36 59 60 53 48 43 41 34
252 252 236 221 230 235 227 231 271 280 281 285 321 343 351 355 173 213 294 282 301 88 90 23 111 69 33 25 5 78 354 344 103 77 12 349 328 172 232 219 191 173 158 199 242 224 123 170 170 164 182 209 219 240 163 179 215 313 73 40 80 84 229 190 233 258 279 313 279 186 176 277 280 181 192 234 258 242 150 70 49 53 61 57 46 42 40 33
242 237 214 209 214 217 227 240 242 250 273 295 314 328 341 320 210 12 257 261 308 98 64 62 147 60 37 124 34 62 62 358 30 10 3 288 353 34 259 227 160 163 154 226 249 286 57 208 211 172 186 222 208 53 142 187 207 86 122 101 75 69 60 152 265 288 286 286 262 172 169 263 294 177 176 220 230 201 102 50 60 69 58 49 45 39 35 30
223 206 186 199 215 220 227 241 243 250 265 266 294 328 321 277 230 220 215 227 309 79 106 153 185 41 102 153 120 36 327 11 40 26 35 96 50 34 358 291 97 164 164 258 261 265 93 95 295 218 227 265 93 58 9 162 103 133 156 75 58 162 107 164 279 337 274 271 241 165 178 222 289 205 170 168 261 132 54 23 48 68 57 46 44 38 32 27
220 204 187 186 209 211 198 233 245 238 243 245 273 327 297 283 197 222 226 228 270 179 142 143 153 135 136 158 185 99 124 37 66 184 148 120 158 80 178 227 165 167 208 239 251 253 173 191 234 231 263 60 103 85 34 51 61 205 179 333 291 241 191 180 148 121 254 267 285 144 177 203 239 240 128 90 50 49 23 8 37 60 58 50 44 38 34 27
213 204 192 186 194 198 192 215 231 209 206 201 205 298 277 265 233 221 211 2 267 212 166 183 178 136 127 147 206 137 153 165 138 182 153 133 210 203 218 226 182 249 257 223 239 297 214 206 213 307 259 185 181 171 112 119 211 210 199 249 274 281 252 250 250 204 250 262 61 107 172 213 245 248 256 277 25 70 46 38 56 68 65 56 46 38 34 30
203 194 187 188 193 198 205 213 199 178 174 161 161 348 135 232 239 205 182 212 253 59 80 71 85 114 136 177 184 147 190 182 144 167 139 125 238 233 228 218 150 267 276 227 303 291 256 224 151 187 241 190 187 202 213 197 186 189 192 200 228 267 273 270 263 251 266 264 93 131 178 233 271 266 245 267 43 70 71 67 71 77 74 65 55 43 36 33
208 196 185 189 194 201 208 213 216 195 160 144 133 141 199 231 240 117 205 223 266 24 67 76 106 124 153 206 208 178 220 224 122 152 179 157 222 240 222 198 180 215 266 241 279 243 254 279 181 177 176 168 188 212 224 115 162 189 185 203 234 253 261 266 258 252 268 272 132 140 175 226 274 347 104 97 74 67 71 76 77 77 75 72 63 50 40 34
217 204 198 192 195 201 204 207 212 204 175 149 161 206 218 229 215 153 228 237 295 339 59 73 118 140 219 216 301 215 233 249 111 141 194 188 217 231 208 193 181 183 180 224 252 192 234 264 167 136 59 169 190 214 104 94 178 182 119 230 250 243 231 251 266 259 280 290 231 186 224 230 259 298 108 101 85 70 66 69 72 69 67 66 56 46 40 33
216 207 206 201 203 203 199 200 200 193 179 157 196 223 228 231 201 198 223 218 269 11 351 265 177 219 250 216 141 114 209 236 150 185 207 198 237 220 206 236 181 186 188 209 260 236 245 256 100 78 266 194 188 8 80 237 247 141 154 215 236 355 236 254 270 247 241 270 249 226 253 252 272 278 191 108 87 74 67 61 62 60 58 59 51 39 33 31
208 203 203 204 209 202 193 194 190 184 178 178 216 227 226 223 217 210 175 112 206 101 51 256 203 199 237 212 206 144 158 210 171 201 218 196 236 198 199 255 177 194 210 310 288 293 296 283 213 144 246 244 35 353 312 297 310 150 192 244 355 43 269 252 267 253 233 253 246 235 256 266 275 273 142 113 99 82 68 63 65 59 55 57 53 42 31 26
194 195 217 217 212 200 189 189 181 171 162 208 226 234 225 209 219 211 172 135 239 92 174 246 235 179 219 238 233 135 161 206 160 162 208 224 226 154 153 252 115 156 32 64 321 358 8 302 289 164 247 33 88 255 250 214 6 245 279 352 359 253 245 222 226 247 242 252 253 236 247 257 255 257 255 187 124 112 99 85 74 61 58 57 52 46 34 26
166 160 257 221 207 200 190 183 171 158 168 211 225 235 225 216 222 192 166 136 195 235 236 245 242 237 242 234 225 154 194 208 151 175 225 233 232 149 119 220 127 80 51 118 215 318 75 276 281 91 101 81 131 212 232 201 150 158 255 301 304 264 276 259 258 304 256 257 262 249 248 249 241 261 277 250 122 129 137 106 88 71 67 60 50 40 26 26
154 145 289 199 193 192 182 173 163 161 202 212 224 224 190 227 246 98 208 215 210 226 240 238 227 236 245 221 199 215 229 218 197 228 232 218 243 241 187 196 143 103 67 125 181 226 155 242 267 282 161 251 237 214 235 250 233 209 221 224 213 215 288 296 271 247 250 259 263 261 258 249 251 337 19 107 113 126 119 105 100 88 79 66 54 37 18 24
157 176 219 159 175 177 167 162 171 190 204 225 236 229 203 247 248 68 248 197 223 290 9 208 229 242 261 278 256 174 135 221 218 240 242 217 241 254 324 1 153 128 120 120 163 207 240 230 252 273 265 258 260 238 228 264 271 253 240 235 238 242 261 277 258 225 229 250 254 263 265 253 270 27 92 113 111 108 106 106 105 91 77 61 45 28 22 20
174 170 150 156 171 171 161 172 203 181 208 226 225 220 199 228 235 226 179 94 238 247 196 214 237 239 242 256 258 232 202 234 225 231 239 229 232 238 338 2 20 107 124 272 235 193 287 232 248 265 264 260 270 272 246 201 236 270 257 244 254 256 246 255 260 253 248 248 241 253 261 254 87 50 96 107 112 113 116 119 113 103 78 59 44 27 24 17
178 140 103 159 174 172 168 201 203 190 225 224 218 238 207 185 236 202 153 143 217 222 198 206 224 233 241 249 247 229 221 235 234 229 232 240 238 244 332 345 74 106 93 268 283 31 58 242 245 261 268 266 268 271 245 140 161 229 240 224 227 240 244 256 270 294 276 257 253 256 257 248 110 100 92 102 117 123 132 134 125 123 102 73 55 39 28 15
146 100 83 172 183 181 185 203 200 206 220 223 244 244 238 248 247 231 224 212 211 207 196 209 230 237 241 240 223 225 229 247 249 238 229 243 250 354 1 345 186 160 304 257 266 355 269 254 262 271 274 269 258 254 244 166 157 240 268 270 263 271 285 284 277 287 266 237 238 252 261 259 114 114 115 127 141 150 156 155 149 144 134 118 95 66 29 14
119 106 14 230 202 197 208 216 200 206 215 222 235 240 244 249 239 235 237 230 221 204 216 243 243 236 235 167 103 224 222 229 247 250 208 226 255 277 352 351 20 113 121 112 119 143 242 242 251 263 263 264 265 267 265 184 135 342 288 279 301 305 301 295 277 273 269 239 233 252 272 286 119 151 188 184 176 177 172 170 170 166 167 173 168 166 14 19
149 147 172 240 329 279 240 278 185 204 212 219 230 239 240 242 246 214 212 227 230 210 226 248 223 210 238 215 232 256 245 228 227 243 256 252 259 288 301 334 5 87 150 139 135 158 242 224 228 242 251 262 269 271 276 275 275 276 264 257 269 277 274 274 266 257 270 281 269 264 276 280 261 217 201 186 189 192 179 182 189 185 192 193 194 219 237 320
188 150 159 177 242 237 242 267 199 200 196 201 214 240 236 236 244 228 201 222 235 212 224 238 199 209 227 213 232 255 255 240 227 236 257 257 254 280 257 228 334 23 143 160 160 170 232 253 249 247 250 257 265 270 273 273 272 272 272 270 269 271 271 268 261 258 272 283 266 254 270 274 271 263 224 174 184 195 178 187 197 190 197 199 208 231 250 325
211 122 137 233 261 210 225 229 203 204 190 186 202 245 241 231 224 215 202 153 124 212 224 226 211 222 230 225 224 238 247 246 238 239 253 260 263 290 282 217 210 35 142 181 181 175 231 257 256 254 259 260 264 269 270 270 271 272 272 271 271 271 268 264 264 268 272 271 268 277 281 278 278 281 267 167 170 182 168 178 193 192 207 215 232 255 302 345
135 112 27 353 3 141 124 71 155 211 214 190 203 238 241 242 234 221 152 85 252 221 218 236 235 223 238 245 239 240 247 253 258 253 242 264 284 294 298 278 261 73 160 204 196 184 223 249 249 251 261 262 262 269 271 273 276 273 268 268 268 267 265 265 271 275 272 270 276 284 281 276 279 281 252 145 150 163 161 182 201 204 215 222 240 261 298 330
121 125 103 80 74 88 65 57 115 207 222 214 225 233 232 241 242 235 145 232 248 245 220 245 249 126 269 259 234 246 254 263 277 276 277 335 267 235 280 286 335 17 317 254 225 226 237 248 247 250 264 261 256 264 270 273 274 271 267 264 260 258 260 263 268 271 271 272 274 273 271 270 275 280 128 142 151 161 192 223 229 222 215 222 239 254 280 310
73 32 90 130 125 130 133 115 136 187 213 216 224 229 229 240 242 235 226 276 266 253 213 219 232 102 188 222 230 248 239 124 216 248 117 224 273 282 259 268 54 353 318 305 318 298 269 282 330 294 270 263 260 268 273 276 274 268 261 256 254 255 258 258 259 263 268 272 272 270 270 270 228 109 128 158 165 195 240 247 261 267 243 239 250 258 271 290
95 44 17 91 126 146 147 132 154 185 206 211 217 213 217 245 228 199 219 172 66 62 81 91 84 91 226 233 241 235 163 134 160 167 152 210 243 241 239 240 238 246 252 281 311 295 270 282 293 275 267 261 261 271 285 286 270 258 246 244 248 252 254 254 255 254 252 258 267 269 271 278 120 128 148 167 184 228 253 254 264 274 269 261 259 261 268 280